#timestamp,LO_Frequency,Hit 
1501621215.4,286047665.5,N
1501621235.3,286047668.2,N
1501621255.1,286047664.0,N
1501621256.0,286047664.0,N
1501621275.8,286047664.0,N
1501621295.6,286047664.3,N
1501621315.5,286047666.4,N
1501621335.3,286047661.6,N
1501621355.1,286047664.9,N
1501621375.9,286047663.8,N
1501621395.7,286047665.1,N
1501621415.5,286047659.2,N
1501621435.4,286047652.8,N
1501621455.2,286047646.9,N
1501621475.0,286047639.9,N
1501621475.9,286047639.9,N
1501621495.8,286047634.5,N
1501621515.6,286047629.5,N
1501621535.4,286047629.8,N
1501621555.2,286047633.0,N
1501621575.1,286047632.4,N
1501621576.0,286047632.4,N
1501621595.8,286047631.6,N
1501621615.6,286047630.0,N
1501621635.5,286047625.9,N
1501621655.3,286047623.6,N
1501621675.1,286047617.3,N
1501621695.9,286047621.5,N
1501621715.7,286047625.2,N
1501621735.5,286047624.9,N
1501621755.4,286047622.7,N
1501621775.2,286047617.5,N
1501621795.0,286047616.7,N
1501621795.9,286047616.7,N
1501621815.7,286047617.6,N
1501621835.6,286047616.2,N
1501621855.4,286047612.0,N
1501621875.2,286047613.2,N
1501621895.1,286047620.3,N
1501621896.0,286047620.3,N
1501621915.8,286047616.7,N
1501621935.6,286047617.0,N
1501621955.5,286047614.3,N
1501621975.3,286047615.6,N
1501621995.1,286047611.4,N
1501622015.9,286047612.7,N
1501622035.7,286047613.3,N
1501622055.5,286047609.0,N
1501622075.4,286047605.6,N
1501622095.2,286047604.8,N
1501622115.0,286047611.2,N
1501622115.9,286047611.2,N
1501622135.7,286047616.1,N
1501622155.6,286047621.4,N
1501622175.4,286047624.8,N
1501622195.2,286047619.4,N
1501622215.1,286047618.2,N
1501622216.0,286047618.2,N
1501622235.8,286047614.3,N
1501622255.6,286047618.7,N
1501622275.5,286047617.7,N
1501622295.3,286047617.3,N
1501622315.1,286047621.4,N
1501622335.9,286047624.1,N
1501622355.7,286047628.4,N
1501622375.5,286047634.8,N
1501622395.3,286047636.9,N
1501622415.2,286047641.4,N
1501622435.0,286047646.6,N
1501622435.9,286047646.6,N
1501622455.7,286047650.7,N
1501622475.6,286047651.0,N
1501622495.4,286047655.5,N
1501622515.2,286047656.5,N
1501622535.1,286047654.5,N
1501622536.0,286047654.5,N
1501622555.8,286047652.2,N
1501622575.6,286047650.7,N
1501622595.5,286047649.9,N
1501622615.3,286047653.3,N
1501622635.1,286047656.9,N
1501622655.9,286047658.1,N
1501622675.7,286047658.7,N
1501622695.5,286047659.8,N
1501622715.3,286047663.4,N
1501622735.2,286047662.9,N
1501622755.0,286047664.7,N
1501622755.9,286047664.7,N
1501622775.7,286047662.5,N
1501622795.6,286047663.1,N
1501622815.4,286047656.2,N
1501622835.2,286047646.5,N
1501622855.1,286047642.1,N
1501622856.0,286047642.1,N
1501622875.8,286047641.9,N
1501622895.6,286047641.8,N
1501622915.5,286047644.0,N
1501622935.3,286047646.5,N
1501622955.1,286047647.0,N
1501622975.8,286047645.2,N
1501622995.7,286047638.3,N
1501623015.5,286047632.8,N
1501623035.3,286047631.9,N
1501623055.2,286047635.6,N
1501623075.9,286047638.9,N
1501623095.7,286047644.2,N
1501623115.6,286047651.2,N
1501623135.4,286047659.5,N
1501623155.2,286047664.1,N
1501623175.1,286047665.6,N
1501623176.0,286047665.6,N
1501623195.8,286047669.4,N
1501623215.6,286047670.6,N
1501623235.4,286047672.3,N
1501623255.3,286047673.0,N
1501623275.1,286047671.5,N
1501623295.8,286047670.0,N
1501623315.7,286047675.9,N
1501623335.5,286047678.3,N
1501623355.3,286047678.5,N
1501623375.2,286047680.8,N
1501623395.9,286047681.6,N
1501623415.7,286047678.7,N
1501623435.6,286047679.5,N
1501623455.4,286047679.6,N
1501623475.2,286047675.8,N
1501623495.0,286047672.9,N
1501623496.0,286047672.9,N
1501623515.8,286047664.4,N
1501623535.6,286047659.5,N
1501623555.4,286047662.3,N
1501623575.3,286047669.6,N
1501623595.1,286047667.2,N
1501623615.8,286047671.3,N
1501623635.7,286047670.4,N
1501623655.5,286047675.9,N
1501623675.3,286047680.3,N
1501623695.2,286047683.1,N
1501623715.9,286047685.0,N
1501623735.7,286047683.5,N
1501623755.6,286047690.0,N
1501623775.4,286047693.5,N
1501623795.2,286047695.6,N
1501623815.0,286047694.9,N
1501623816.0,286047694.9,N
1501623835.8,286047696.3,N
1501623855.6,286047700.0,N
1501623875.4,286047705.2,N
1501623895.3,286047702.9,N
1501623915.1,286047702.9,N
1501623935.8,286047709.1,N
1501623955.7,286047715.4,N
1501623975.5,286047717.9,N
1501623995.3,286047720.6,N
1501624015.2,286047721.4,N
1501624035.9,286047722.4,N
1501624055.7,286047721.8,N
1501624075.6,286047725.7,N
1501624095.4,286047724.5,N
1501624115.2,286047725.9,N
1501624135.0,286047724.4,N
1501624135.9,286047724.4,N
1501624155.8,286047727.1,N
1501624175.6,286047730.4,N
1501624195.4,286047734.8,N
1501624215.3,286047738.8,N
1501624235.1,286047739.4,N
1501624236.0,286047739.4,N
1501624255.8,286047739.8,N
1501624275.7,286047740.1,N
1501624295.5,286047739.5,N
1501624315.3,286047741.1,N
1501624335.2,286047742.3,N
1501624355.9,286047747.8,N
1501624375.7,286047749.9,N
1501624395.5,286047748.2,N
1501624415.4,286047748.0,N
1501624435.2,286047748.1,N
1501624455.0,286047748.0,N
1501624455.9,286047748.0,N
1501624475.8,286047742.3,N
1501624495.6,286047740.9,N
1501624515.4,286047744.7,N
1501624535.3,286047744.0,N
1501624555.1,286047748.1,N
1501624556.0,286047748.1,N
1501624575.8,286047748.8,N
1501624595.7,286047744.4,N
1501624615.5,286047739.4,N
1501624635.3,286047742.6,N
1501624655.1,286047741.6,N
1501624675.9,286047733.3,N
1501624695.7,286047726.9,N
1501624715.5,286047725.1,N
1501624735.4,286047723.7,N
1501624755.2,286047722.5,N
1501624775.0,286047718.1,N
1501624775.9,286047718.1,N
1501624795.8,286047717.4,N
